Lapse_Rate
1.1 0.6 1.2 1.5 1.5 1.4 1.3 1.0 0.9 1.2 1.3 1.4 1.7 2.1 2.4 2.7 2.9 3.4 3.8 4.0 4.3 4.7 4.8 4.7 4.7 4.7 4.8 4.8 4.6 4.3 4.1 4.0 4.3 5.0 5.7 6.0 6.1 6.0 5.7 5.3 5.0 4.8 5.0
0.6 0.8 1.0 1.4 1.4 1.5 1.6 1.5 1.3 1.6 1.7 1.8 1.8 2.1 2.5 2.7 3.0 3.3 3.6 3.9 4.4 4.8 4.8 4.7 4.8 4.7 4.6 4.4 4.4 4.0 3.8 3.7 4.5 4.9 5.5 5.8 5.8 5.8 5.5 5.1 4.8 5.0 5.0
0.3 1.0 1.4 1.5 1.7 1.7 1.9 2.1 2.1 2.2 2.2 2.1 2.1 2.3 2.7 3.1 3.2 3.4 3.7 4.1 4.5 4.8 4.8 4.8 4.8 4.6 4.3 4.2 4.2 3.9 3.7 3.9 4.3 4.5 5.0 5.2 5.4 5.8 5.3 5.1 5.0 5.0 5.0
0.5 0.7 1.0 1.4 1.9 2.0 1.9 2.4 2.6 2.6 2.3 2.2 2.3 2.5 2.7 3.2 3.4 3.6 3.7 4.0 4.4 4.9 5.1 5.2 5.1 4.5 4.1 4.1 3.9 3.6 3.6 3.9 4.4 4.4 4.7 5.2 5.9 5.9 5.4 5.3 5.2 5.1 5.0
1.6 1.2 0.8 1.1 2.0 2.4 2.2 2.6 2.8 2.6 2.3 2.3 2.4 2.6 2.8 3.2 3.6 3.6 3.6 4.0 4.6 5.0 5.8 5.3 4.9 4.3 4.0 3.8 3.7 3.0 3.8 4.1 4.1 4.8 4.6 4.9 5.7 5.9 5.7 5.1 5.0 4.9 4.6
0.9 0.6 0.4 1.2 1.6 2.3 2.5 2.8 2.8 2.6 2.5 2.4 2.6 2.7 2.9 3.3 3.6 3.6 3.8 4.2 4.8 5.1 5.2 4.9 4.5 4.1 3.9 3.8 3.6 3.0 4.4 4.1 3.8 4.2 4.5 5.4 5.6 6.3 5.7 5.0 4.5 5.0 4.6
0.2 0.2 1.1 1.4 2.0 2.5 2.8 2.9 2.8 2.9 2.9 2.8 2.7 2.9 3.1 3.4 3.6 3.6 3.9 4.2 4.5 4.8 4.7 4.4 4.0 3.7 3.9 4.1 3.5 3.5 4.1 4.3 3.8 3.4 3.8 4.8 5.4 6.0 5.6 4.9 4.5 4.8 4.9
0.4 0.3 1.0 1.9 2.3 2.8 3.1 3.1 3.1 3.1 3.2 3.1 3.1 3.0 3.1 3.2 3.4 3.6 3.7 3.9 4.0 4.1 3.8 3.7 3.6 3.6 3.7 3.9 3.5 3.8 3.8 4.2 3.7 3.5 3.8 4.4 5.4 5.9 5.5 4.8 4.4 4.4 4.6
1.0 0.9 1.1 1.8 2.7 3.1 3.4 3.3 3.4 3.4 3.5 3.3 3.0 2.8 2.7 3.0 3.2 3.5 3.7 3.8 3.7 3.8 3.7 3.6 3.6 3.6 3.8 3.6 3.7 3.5 3.3 3.6 3.3 3.6 4.0 4.4 5.7 5.5 5.4 5.0 4.5 4.3 4.6
1.8 1.8 1.5 1.5 1.8 2.4 2.8 3.3 3.4 3.6 3.3 2.4 2.5 2.4 2.5 2.8 2.9 3.3 3.4 3.9 3.5 3.8 3.7 3.6 3.7 3.9 3.9 3.6 3.7 3.7 2.8 2.6 2.9 3.4 4.3 5.5 5.5 5.4 5.4 5.3 5.0 4.4 4.4
2.3 2.3 2.0 1.6 1.4 1.5 2.0 2.5 2.9 3.1 2.6 2.3 2.2 2.4 2.2 1.6 2.1 2.5 2.5 3.5 3.2 3.5 3.6 3.2 3.1 3.4 3.5 3.1 3.4 2.9 2.5 2.2 2.7 3.0 4.4 5.7 5.6 5.8 5.5 5.9 5.5 5.0 5.7
2.5 2.0 1.5 1.1 1.1 1.2 2.2 2.1 2.1 2.2 2.1 1.7 1.5 0.9 0.5 0.6 1.0 1.4 1.9 2.4 2.7 2.9 3.2 2.8 2.7 2.8 2.6 2.0 2.0 2.1 2.0 2.3 2.4 2.8 4.0 5.0 5.6 5.8 5.6 6.5 6.1 5.3 5.4
1.6 2.3 1.5 1.4 1.1 1.5 1.9 1.1 1.2 0.9 0.8 0.6 0.9 0.3 0.0 -0.3 0.3 0.2 0.1 0.7 0.5 1.5 1.3 2.0 1.6 1.1 1.1 0.9 0.6 0.8 1.5 1.5 1.7 2.4 3.7 4.5 5.3 5.7 6.5 7.0 6.3 6.0 5.3
1.8 1.9 1.7 1.6 1.7 1.5 1.5 1.4 1.3 1.2 0.5 0.4 0.5 0.1 -0.7 -1.4 -1.5 -1.7 -1.8 -1.0 -1.1 -0.4 -0.6 0.5 0.3 0.3 0.7 0.7 0.8 0.5 0.6 0.6 1.0 1.7 3.1 3.8 4.8 6.1 8.3 7.3 6.8 6.0 5.2
1.8 1.5 1.0 1.2 1.4 1.8 1.7 1.2 0.6 1.1 0.8 0.6 0.6 0.3 -0.4 -1.4 -1.5 -2.0 -2.5 -1.8 -1.3 -0.9 -0.9 -0.7 0.1 0.1 -0.3 0.2 0.4 0.5 0.3 0.5 1.0 1.4 2.3 3.2 3.3 7.5 8.1 7.7 7.3 6.7 5.5
0.4 -0.1 1.2 0.5 1.6 1.0 1.2 1.0 0.2 0.0 -0.2 -0.4 0.1 0.3 0.1 -0.4 -0.8 -1.9 -2.8 -2.7 -1.7 -0.6 -0.4 -0.2 -0.5 -1.0 -1.1 0.1 -0.3 0.3 0.4 0.5 0.7 1.2 1.9 2.8 3.7 5.6 6.9 7.7 7.8 7.6 6.6
-1.2 0.2 -0.4 0.4 1.2 0.5 1.5 1.1 0.9 0.5 0.5 0.1 -0.1 0.5 0.3 0.0 -0.5 -0.6 -1.4 -2.0 -1.6 -0.4 -0.5 -0.5 -0.2 -0.5 -1.3 0.3 -0.1 0.0 0.6 0.6 0.8 1.0 1.6 2.1 2.0 4.2 5.5 6.3 7.0 6.6 5.4
-0.1 -0.6 -0.4 1.3 1.0 1.2 0.1 0.2 1.2 1.0 0.9 1.1 0.4 0.6 1.0 0.9 0.4 -0.1 -0.7 -1.3 -0.4 0.1 -0.2 -0.7 -0.6 -0.4 -0.5 0.3 0.0 0.6 0.5 1.0 0.9 1.1 1.6 1.9 2.1 2.8 4.9 5.7 5.5 4.9 3.7
-0.2 -0.3 -0.4 0.2 -0.2 -0.3 0.6 0.8 0.8 0.3 1.3 1.1 0.5 0.2 0.5 0.9 1.0 -0.3 -0.8 -0.6 -0.1 -0.7 -0.6 0.6 0.3 0.8 0.8 1.0 1.5 1.1 0.6 0.7 1.1 1.7 1.2 1.7 2.3 2.6 2.8 3.3 3.2 3.3 4.0
0.3 0.4 0.1 0.7 1.0 1.4 1.0 0.8 -0.0 0.4 1.4 0.9 1.4 1.3 0.5 1.0 1.1 0.3 0.1 0.0 0.0 -0.4 -0.3 0.5 1.0 1.1 1.6 2.4 4.0 1.7 1.0 1.2 1.5 1.3 1.5 1.9 1.7 1.9 1.9 1.7 2.0 2.7 3.2
3.4 3.8 2.9 1.2 0.9 1.6 1.4 -0.0 0.6 0.1 0.8 0.5 1.3 1.0 0.9 0.9 0.4 -0.4 -0.3 0.0 0.0 0.8 0.4 0.5 0.6 1.7 1.8 2.0 1.6 2.2 1.7 1.5 1.6 1.7 2.2 1.9 1.7 1.2 1.2 0.9 0.9 1.0 1.4
1.4 3.7 4.2 4.3 3.8 1.6 1.1 0.4 1.8 2.0 0.2 0.8 -0.8 -0.1 0.9 0.2 0.2 -0.1 -0.1 -0.1 -0.1 0.1 0.1 0.4 0.8 1.2 1.5 2.1 3.0 2.8 4.3 4.5 3.2 2.6 1.8 2.7 1.7 2.0 1.0 0.4 0.3 0.3 0.7
1.0 0.9 1.2 4.3 4.4 3.3 3.0 2.6 -0.5 -1.2 -1.2 -0.9 -0.1 1.0 0.5 0.9 0.6 0.7 -0.3 -0.2 0.1 0.5 1.0 0.4 0.2 1.5 2.0 2.0 3.6 2.1 4.4 4.2 3.7 3.4 3.0 2.5 1.8 1.6 1.3 1.0 0.7 0.8 0.9
1.6 0.8 0.0 1.6 4.2 5.1 4.6 4.4 2.8 1.7 1.5 1.9 1.5 0.3 0.4 1.0 0.7 0.4 0.6 0.7 0.2 -0.7 -0.1 0.8 0.2 0.1 1.7 2.9 1.1 0.9 0.5 1.2 3.5 4.9 3.8 2.9 2.1 2.3 1.3 1.8 1.5 1.7 1.7
-0.3 0.4 0.9 1.7 5.8 4.9 4.9 4.7 2.8 3.7 2.6 -0.7 0.1 0.3 1.0 0.7 1.5 1.7 0.9 0.4 0.2 -0.1 -0.5 -0.0 -0.6 0.3 0.4 2.1 0.3 0.1 0.1 -0.1 0.7 2.0 3.9 4.1 2.9 2.0 1.7 1.8 1.7 2.2 2.3
0.0 0.0 1.6 2.9 2.7 2.7 3.8 2.7 2.5 2.5 1.1 1.2 1.3 1.6 1.7 1.7 1.2 1.1 1.2 0.4 -0.7 -0.6 -0.6 -0.5 -0.5 0.0 -0.2 -0.1 -0.1 -0.1 0.4 1.2 1.4 0.6 2.3 4.4 3.6 3.2 2.3 1.9 1.9 2.4 2.7
Wind_Speed
7 13 16 15 13 12 13 17 19 21 24 25 24 22 21 21 19 18 17 16 16 15 15 13 13 12 11 10 12 12 11 10 8 7 8 9 10 11 10 11 11 10 12
13 18 20 18 17 15 14 15 17 19 22 24 23 21 19 19 18 18 17 16 15 15 14 12 11 11 10 10 11 11 10 8 6 5 5 8 10 10 10 10 11 11 11
17 17 17 18 17 17 16 14 16 18 20 22 22 21 19 17 17 16 15 14 14 14 13 12 10 10 9 9 11 10 9 7 5 2 3 8 10 10 10 10 11 11 10
16 19 18 19 17 18 18 15 15 17 19 20 21 20 19 17 15 15 13 12 11 12 12 12 9 8 8 9 10 10 7 6 4 2 4 11 11 10 10 10 10 11 10
13 17 18 21 17 15 17 16 15 16 18 19 20 20 18 17 15 15 13 12 10 14 14 11 9 7 6 7 8 11 6 8 10 10 12 11 12 9 10 9 10 10 10
11 12 18 19 20 17 16 16 15 15 16 18 18 18 18 16 14 13 13 13 11 11 13 12 10 7 5 4 8 10 6 6 12 14 12 12 10 11 11 10 10 8 9
9 10 15 20 18 17 17 17 16 16 16 16 17 17 17 16 14 13 13 13 13 12 12 11 9 7 4 3 10 8 5 9 12 12 10 12 13 13 12 10 11 9 7
13 11 14 16 18 17 16 15 17 17 16 16 15 16 17 16 14 13 12 12 13 12 12 10 9 7 5 7 11 9 10 10 10 10 10 13 14 13 11 11 8 8 7
7 10 11 14 15 17 17 18 18 17 17 14 16 16 16 15 14 13 12 12 12 11 11 10 9 8 7 11 9 9 12 12 10 9 9 11 14 15 12 14 12 8 6
7 7 9 11 13 14 14 19 18 17 16 17 17 17 16 14 13 12 12 10 11 11 11 11 9 7 9 12 9 13 14 14 12 11 10 14 15 12 12 12 11 8 4
8 8 8 7 9 11 13 15 17 18 19 17 15 17 16 13 13 13 11 10 10 9 9 9 8 6 7 10 12 15 15 13 13 11 11 15 14 12 13 12 12 8 1
12 11 8 8 8 10 11 12 14 13 13 14 13 14 15 15 14 13 11 11 9 8 6 7 6 6 9 11 14 14 13 12 12 12 12 11 10 9 13 15 17 15 14
14 10 10 9 8 9 7 9 8 9 9 11 14 14 14 12 12 11 10 10 8 7 5 5 7 9 14 14 13 14 13 13 12 13 14 13 10 9 12 19 21 22 24
15 17 14 12 10 8 7 4 5 4 7 6 9 13 9 5 5 6 6 7 8 8 7 5 5 10 13 16 16 13 13 12 12 14 14 13 8 6 14 19 21 23 24
16 17 16 14 14 10 8 6 4 5 5 7 7 10 11 5 4 5 6 7 7 9 8 6 5 6 8 12 13 13 11 12 13 14 16 17 17 10 17 18 18 21 22
16 17 14 16 13 11 10 10 8 7 8 9 9 10 11 9 5 4 4 4 6 10 10 10 6 4 5 11 8 11 11 12 14 14 15 17 21 25 17 19 19 18 16
17 12 17 15 13 13 12 9 8 7 9 5 7 13 14 13 9 7 4 4 6 11 12 10 6 6 5 6 8 9 11 12 12 13 15 17 18 21 20 23 22 19 18
13 17 15 13 14 13 14 10 8 7 7 6 7 10 12 13 13 7 4 4 9 8 6 4 4 4 5 7 7 6 5 9 11 13 14 15 17 15 19 23 20 17 15
18 16 17 17 18 17 12 8 7 7 7 8 11 12 16 16 16 9 5 5 11 6 4 4 2 4 4 4 5 5 4 5 7 10 11 14 15 18 17 22 18 16 15
17 18 17 14 15 14 9 7 5 6 8 9 8 10 15 14 14 9 5 5 8 4 4 3 4 3 3 6 7 5 4 3 5 5 7 12 15 18 18 19 16 15 15
6 9 12 15 17 12 11 11 10 12 9 7 7 10 13 14 15 10 5 6 5 4 4 5 3 4 3 4 4 5 5 5 5 3 5 7 10 13 16 17 17 16 15
10 7 9 14 14 15 13 13 7 9 4 7 5 7 15 15 15 9 9 8 8 6 8 7 5 3 2 5 4 3 2 3 4 4 3 3 5 11 12 14 16 16 15
13 12 11 14 17 16 15 9 3 5 3 3 6 8 8 12 13 11 9 9 9 7 8 8 7 8 6 5 9 4 4 4 3 3 4 2 3 4 9 11 13 14 14
9 8 10 12 15 12 12 10 12 13 11 8 8 6 6 9 12 12 10 10 10 6 8 8 6 5 6 11 2 2 2 5 3 3 2 2 2 4 5 8 10 12 14
13 13 10 13 4 9 11 11 8 10 7 4 6 10 10 9 10 11 12 11 9 7 7 8 7 6 3 7 4 3 2 3 3 3 3 3 3 3 2 7 9 10 11
11 13 13 11 8 8 4 7 11 11 6 6 9 10 9 7 4 6 8 8 7 6 6 5 5 6 5 4 3 2 3 3 3 3 3 5 5 2 2 3 6 9 12
Wind_Direction
181 157 154 142 135 131 133 127 124 122 121 120 120 121 122 122 121 121 120 119 120 120 118 114 109 106 100 90 82 81 77 70 71 73 76 84 98 87 87 84 77 69 62
143 153 156 146 142 139 137 131 128 127 125 122 120 119 120 121 123 124 126 126 125 122 118 114 111 106 98 88 77 75 75 71 58 60 81 90 106 94 94 93 87 78 67
149 151 148 141 142 142 139 138 135 131 126 122 120 120 120 121 123 123 123 125 126 125 124 120 114 109 101 87 77 71 65 57 42 7 111 125 120 109 103 96 93 86 75
147 148 149 147 151 148 142 143 141 135 129 126 125 124 123 124 126 126 124 127 130 132 132 120 107 99 91 84 82 73 55 36 12 25 126 132 125 120 110 103 96 87 77
150 150 151 148 150 150 142 145 146 141 137 133 131 130 129 130 129 127 124 131 125 133 122 116 110 96 81 67 68 69 43 48 60 108 106 115 120 125 117 105 97 91 82
141 145 147 149 150 152 148 151 151 148 143 139 139 137 136 137 137 134 131 131 130 126 130 124 115 103 83 66 69 82 68 66 82 93 99 100 118 125 115 111 100 89 87
127 128 153 151 151 153 156 158 155 154 152 149 147 144 140 141 142 138 136 131 127 130 124 121 120 118 110 62 58 75 78 110 100 92 102 118 116 117 118 121 112 110 97
141 139 148 156 156 161 165 163 162 161 162 158 154 148 141 139 142 141 139 136 132 132 134 129 127 128 120 78 73 60 82 106 96 90 88 100 107 105 106 103 108 124 116
132 143 150 159 164 168 172 172 171 169 167 167 155 146 142 143 143 144 147 147 143 143 138 135 140 138 111 84 87 94 91 91 83 78 80 90 106 99 92 95 87 100 125
144 152 160 158 159 169 177 178 177 175 168 147 151 150 148 149 147 149 146 154 147 147 143 140 139 123 100 84 81 113 97 94 84 71 76 90 84 89 86 85 84 87 119
163 169 164 163 162 163 172 176 172 171 160 154 159 157 152 152 155 156 155 160 151 152 147 139 137 123 92 89 107 102 96 85 79 74 72 78 79 76 72 73 59 45 112
179 177 170 167 170 163 167 169 171 172 163 165 170 160 159 160 167 166 163 164 158 152 148 145 141 119 106 106 108 97 94 87 73 68 82 95 94 89 86 70 62 54 51
176 180 181 179 178 176 175 173 163 165 169 175 178 170 165 162 168 166 166 170 158 148 142 150 132 108 126 121 106 101 94 86 80 73 65 66 81 100 98 85 75 68 67
187 190 186 186 184 187 171 170 178 179 184 179 188 174 163 161 168 168 162 178 160 155 140 157 146 123 120 122 120 110 103 94 87 83 74 69 81 99 110 98 86 78 73
203 200 200 187 187 184 182 166 171 189 188 187 188 183 170 159 172 176 171 174 174 158 149 148 151 123 115 115 109 112 100 93 84 80 68 62 43 73 112 104 95 79 70
203 207 196 198 196 180 188 176 185 187 182 175 183 187 184 176 167 191 175 166 171 181 171 161 161 140 124 124 111 110 107 102 100 92 84 74 58 60 81 92 88 79 64
210 195 204 197 194 187 192 189 187 190 187 189 180 188 185 185 183 181 185 180 181 184 164 151 138 123 113 120 120 118 119 115 108 102 98 88 80 71 76 83 78 77 78
201 203 196 198 195 198 192 185 189 183 184 195 176 182 192 194 189 181 181 191 175 168 154 141 144 125 124 136 133 132 124 120 116 110 102 92 86 85 77 82 80 75 73
204 205 200 196 198 198 192 182 179 167 188 190 181 185 190 191 191 177 176 187 168 153 147 153 115 122 122 116 128 122 122 127 128 120 109 103 99 91 89 92 90 82 73
206 205 205 198 201 192 183 177 165 176 199 189 196 199 182 185 178 163 170 163 152 143 144 123 127 60 127 136 128 90 68 80 108 120 124 118 109 101 98 96 90 82 77
250 257 234 200 199 184 188 187 191 201 191 192 193 183 180 182 174 168 163 154 147 153 164 140 104 122 51 92 90 60 38 43 50 52 118 121 114 108 104 99 96 88 79
2 305 230 223 213 204 199 202 197 192 194 187 157 175 182 177 175 168 166 171 163 154 152 156 145 130 130 182 136 104 85 16 30 24 35 116 123 123 110 109 107 103 95
6 338 302 232 219 212 215 192 107 98 90 118 181 186 192 177 172 170 169 168 169 169 177 172 156 156 154 197 185 139 149 186 121 22 11 33 120 116 111 111 112 110 105
3 337 338 265 217 212 204 202 202 200 191 198 192 182 176 180 179 170 171 170 169 167 164 177 166 156 149 182 201 78 38 139 162 149 81 39 43 123 124 131 129 123 119
358 3 1 3 234 188 201 206 200 222 214 157 158 163 179 184 190 177 169 165 168 173 163 157 152 157 155 171 161 145 106 60 105 137 157 157 66 10 88 138 142 134 130
5 9 1 12 26 354 224 188 191 201 182 176 176 178 184 185 182 159 153 146 132 136 137 134 129 142 148 127 120 135 152 162 170 147 116 152 141 91 26 89 141 145 141